CZ-6A DEB, 56276

Orbit data source: Space-Track

CZ-6A DEB, 56276 is space debris in SSO originally from a launch on Fri, 11 Nov 2022 UTC launched from the Taiyaun Space Center, China (TSC). Debris objects in space refer to the collection of defunct objects orbiting the Earth. Examples of debris include non-operational satellites, rocket bodies, and fragments generated from explosions, collisions, or faulty payload assembly.

Loading next visibility...
Identifier
56276, 2022-151ACU
Orbit
SSO
Country
Flag of CNCN / PRC
Related business
Manufacturer
SAST
Mission
Spacecraft
Bus & Motor
Unknown
Mass
Unknown
Launch date (UTC)
2022-11-11 (4 years ago)
Launch vehicle
Unknown
Launch site
Taiyaun Space Center, China (TSC)
Object type
Payload
Rocket body
Debris
Shape & HBR
Unknown shape, 0.1 m
Radar Cross Section
Small (<0.1 m²)

Expand to show TLE details & history
Last TLE update: 1 day ago

TLE from 1 day ago
0 CZ-6A DEB
1 56276U 22151ACU 26235.03354339  .00000521  00000-0  26088-3 0  9990
2 56276  98.7777 250.5006 0010262 116.8820 243.3407 14.20921104177718
Epoch: 2026-08-23T00:48Z
TLE epoch observation values (Epoch: 2026-08-23T00:48:18.148Z)
Latitude
-0.00003°
Longitude
-92.91042°
Altitude
828.475 km
Speed
7.437 km/s
True Right ascension
16h 42m 00s
True Declination
0° 00' 00"
Sunlit
Object was in daylight at epoch
Visualization orbit readout
Latitude
Unknown
Longitude
Unknown
Altitude
Unknown
Speed
Unknown
Apparent Right ascension
Unknown
Apparent Declination
Unknown
Sunlit
N/A
Visualization observer readout
Local Sidereal Time
03:49:26
Azimuth
Unknown
Elevation
Unknown
Doppler factor
Unknown
Orbital elements
Apogee altitude
826.786 km
Perigee altitude
812.014 km
Semi-major axis
7,197.537 km
Eccentricity
0.00103
Inclination
98.7777°
RAAN
250.5006°
Arg. of periapsis
116.882°
True anomaly
243.23567°
Mean anomaly
243.3407°
Eccentric anomaly
243.28818°
Mean motion
3.55441 °/min
Orbital period
101.28 mins
BSTAR
0.00026088
Loading maneuver chart data...
Computing Atmospheric mass density...
Loading historical data...
Loading historical data...
Loading historical data...
Loading historical data...
Loading historical data...
Loading historical data...
Loading historical data...

Documentation

Showing up to 5 results
|